Snowfall_Accumulation
0.1 1.6 5.5 1.9 0.8 1.5 2.1 2.2 1.6 0.9 0.2 0.5 0.8 0.5 0.0 0.0 0.0 0.0 0.0 0.0 0.0 0.0 0.0 0.0 0.0 0.0 0.0 0.0 0.0 0.0 0.0 0.0 0.0 0.0 0.0 0.0 0.0 0.0 0.0 0.0 0.0 0.0 0.0 0.0
2.4 4.1 0.9 0.3 0.5 1.7 2.6 3.0 2.0 1.0 0.1 0.9 1.3 0.8 0.1 0.0 0.0 0.0 0.0 0.0 0.0 0.0 0.0 0.0 0.0 0.0 0.0 0.0 0.0 0.0 0.0 0.0 0.0 0.0 0.0 0.0 0.0 0.0 0.0 0.0 0.0 0.0 0.0 0.0
5.2 2.2 0.2 0.8 1.5 2.7 2.7 2.9 1.8 2.1 1.2 0.3 1.3 2.2 0.6 0.2 0.0 0.0 0.0 0.0 0.0 0.0 0.0 0.0 0.0 0.0 0.0 0.0 0.0 0.0 0.0 0.0 0.0 0.0 0.0 0.0 0.0 0.0 0.0 0.0 0.0 0.0 0.0 0.0
1.9 0.5 0.5 1.6 2.1 2.3 3.7 0.7 0.6 1.7 2.6 3.8 2.8 5.8 1.5 0.6 0.6 0.0 0.1 0.3 0.0 0.0 0.0 0.0 0.0 0.0 0.0 0.0 0.0 0.0 0.0 0.0 0.0 0.0 0.0 0.0 0.0 0.0 0.0 0.0 0.0 0.0 0.0 0.0
3.3 0.6 0.7 2.9 1.7 1.2 1.4 0.1 0.5 1.3 3.7 4.9 2.3 4.9 3.2 0.7 1.3 0.9 0.3 0.6 0.5 0.0 0.0 0.0 0.0 0.0 0.0 0.0 0.0 0.0 0.0 0.0 0.0 0.0 0.0 0.0 0.0 0.0 0.0 0.0 0.0 0.0 0.0 0.0
1.5 0.4 0.5 0.7 0.1 0.3 0.4 0.4 0.9 2.2 6.0 10.6 3.9 4.6 3.9 3.0 2.5 1.2 0.3 0.5 0.4 0.1 0.0 0.0 0.0 0.0 0.0 0.0 0.0 0.0 0.0 0.0 0.0 0.0 0.0 0.0 0.0 0.0 0.0 0.0 0.0 0.0 0.0 0.0
7.4 2.8 0.6 0.2 2.1 1.7 1.9 11.3 18.5 18.3 15.9 8.8 1.7 3.0 3.8 1.8 0.3 0.3 0.3 0.5 0.3 0.2 0.2 0.1 0.0 0.2 0.1 0.1 0.2 0.2 0.2 0.3 0.1 0.0 0.0 0.0 0.0 0.0 0.0 0.0 0.0 0.0 0.0 0.0
10.5 11.3 1.5 0.3 1.1 3.3 3.1 7.5 13.8 12.4 8.2 4.0 2.0 3.4 3.5 0.2 0.2 0.0 0.1 0.4 0.3 0.5 0.5 0.4 0.2 0.4 0.1 0.1 0.0 0.1 0.1 0.3 0.3 0.2 0.1 0.0 0.0 0.0 0.0 0.0 0.0 0.0 0.0 0.0
7.9 8.2 0.7 0.2 0.3 1.2 5.8 7.2 4.0 9.4 7.1 4.9 3.3 2.4 1.9 0.1 0.2 0.4 0.2 0.3 0.4 0.4 0.4 0.5 0.7 0.6 0.3 0.3 0.0 0.0 0.1 0.2 0.2 0.2 0.0 0.0 0.0 0.0 0.0 0.0 0.0 0.0 0.0 0.0
4.2 8.1 2.9 0.3 0.6 0.5 1.0 1.5 6.3 11.6 9.8 6.9 3.6 2.8 3.8 2.6 1.6 0.8 0.4 0.4 0.3 0.2 0.3 0.4 0.5 0.7 0.6 0.2 0.4 0.1 0.0 0.1 0.0 0.2 0.2 0.2 0.2 0.0 0.0 0.0 0.0 0.0 0.0 0.0
2.6 7.2 7.2 1.9 4.2 4.4 2.7 4.0 7.0 8.9 7.7 7.9 5.2 3.7 2.6 2.2 1.3 1.2 0.4 0.4 0.6 0.6 0.4 0.4 0.5 0.5 0.4 0.4 0.1 0.1 0.0 0.0 0.1 0.0 0.1 0.2 0.2 0.1 0.0 0.0 0.0 0.0 0.0 0.0
1.6 4.3 8.9 3.7 0.4 0.3 0.8 2.2 4.9 9.8 7.5 6.0 5.6 3.6 0.5 0.3 0.2 0.4 0.4 0.3 0.4 0.4 0.3 0.3 0.3 0.4 0.4 0.2 0.1 0.1 0.1 0.2 0.1 0.0 0.0 0.0 0.2 0.0 0.1 0.0 0.0 0.0 0.0 0.0
2.0 4.6 8.7 4.0 1.5 0.7 1.8 1.2 2.1 4.8 8.7 7.0 6.4 3.8 0.3 0.4 0.2 0.3 0.3 0.3 0.2 0.2 0.3 0.3 0.3 0.3 0.3 0.2 0.1 0.1 0.1 0.2 0.1 0.0 0.0 0.0 0.1 0.2 0.2 0.1 0.0 0.0 0.0 0.0
1.2 3.9 5.6 5.7 3.8 3.4 3.7 2.8 2.5 6.7 10.7 6.1 3.9 3.4 1.5 0.8 0.5 0.5 0.3 0.3 0.2 0.2 0.2 0.2 0.2 0.2 0.2 0.2 0.2 0.1 0.1 0.1 0.2 0.1 0.0 0.0 0.0 0.0 0.0 0.0 0.0 0.0 0.0 0.0
1.2 3.6 2.8 1.7 0.9 1.6 2.2 2.4 2.6 5.0 4.9 5.6 3.0 2.6 1.4 0.8 0.5 0.3 0.2 0.2 0.2 0.2 0.1 0.1 0.2 0.2 0.2 0.2 0.2 0.1 0.1 0.1 0.1 0.1 0.1 0.1 0.1 0.1 0.0 0.0 0.0 0.0 0.0 0.0
0.8 2.2 1.9 2.4 0.6 0.9 2.3 1.8 1.8 2.1 2.3 3.2 2.6 2.2 0.7 0.5 0.3 0.3 0.2 0.1 0.2 0.2 0.2 0.2 0.2 0.2 0.1 0.1 0.2 0.2 0.1 0.1 0.1 0.2 0.2 0.1 0.1 0.1 0.0 0.0 0.0 0.0 0.0 0.0
0.8 1.3 4.4 3.3 1.1 2.4 3.7 1.7 1.6 2.0 1.8 2.1 3.4 2.1 0.8 0.7 0.8 0.8 0.2 0.2 0.2 0.2 0.2 0.1 0.1 0.1 0.1 0.1 0.1 0.1 0.1 0.1 0.1 0.1 0.2 0.1 0.1 0.1 0.1 0.1 0.1 0.1 0.1 0.1
0.8 1.6 4.2 3.7 2.2 3.4 1.5 0.3 0.6 1.2 1.4 0.9 1.2 1.0 0.5 0.6 0.4 0.1 0.1 0.3 0.2 0.2 0.3 0.1 0.1 0.1 0.0 0.1 0.0 0.1 0.0 0.1 0.1 0.2 0.2 0.2 0.3 0.2 0.4 0.4 0.4 0.5 0.4 0.5
0.5 1.3 5.1 4.5 2.9 1.8 0.6 0.4 0.5 1.3 2.0 0.9 0.8 0.5 0.2 0.1 0.1 0.1 0.0 0.2 0.2 0.2 0.1 0.1 0.2 0.1 0.0 0.1 0.0 0.1 0.1 0.1 0.2 0.2 0.3 0.4 0.6 0.7 0.5 0.6 0.5 0.5 0.5 0.5
0.5 0.8 4.0 4.5 3.9 2.4 1.0 0.2 0.1 0.3 2.0 0.5 0.2 0.5 0.2 0.1 0.7 0.9 0.0 0.0 0.1 0.1 0.1 0.1 0.1 0.1 0.1 0.1 0.1 0.1 0.1 0.2 0.2 0.3 0.5 0.4 0.3 0.9 0.7 0.7 0.6 0.6 0.6 0.7
1.6 2.4 4.0 3.7 3.5 1.3 0.4 0.0 0.1 1.3 4.2 0.4 0.4 0.4 0.2 0.4 1.0 0.6 0.1 0.0 0.0 0.1 0.1 0.0 0.1 0.2 0.1 0.2 0.2 0.4 0.4 0.5 0.7 0.3 0.1 0.2 0.4 0.8 0.8 0.8 0.6 0.8 0.6 0.7
1.0 1.4 1.5 1.7 2.7 1.7 0.3 0.2 0.8 1.1 0.4 0.3 0.3 0.3 0.3 0.3 0.2 0.2 0.1 0.1 0.1 0.1 0.1 0.2 0.3 0.5 0.4 0.5 0.4 0.6 0.7 0.3 0.2 0.3 0.3 0.5 0.8 0.8 0.6 0.5 0.6 1.0 1.1 0.9
0.7 1.0 1.1 1.1 1.1 0.6 0.3 0.4 0.2 0.2 0.2 0.2 0.1 0.1 0.1 0.2 0.3 0.2 0.2 0.2 0.2 0.2 0.1 0.1 0.2 0.3 0.2 0.2 0.1 0.6 0.7 0.5 0.3 0.4 0.5 0.5 0.5 0.5 0.6 0.4 0.7 0.8 0.7 0.8
0.6 0.3 0.6 1.0 0.4 0.4 0.2 0.2 0.1 0.1 0.1 0.1 0.1 0.1 0.1 0.1 0.2 0.2 0.2 0.2 0.2 0.2 0.2 0.2 0.3 0.3 0.4 0.4 0.4 0.6 0.5 0.4 0.5 0.6 0.7 0.7 0.5 0.5 0.5 0.6 0.5 0.6 0.7 0.7
0.4 0.4 0.7 1.1 0.4 0.3 0.2 0.1 0.1 0.1 0.1 0.1 0.1 0.1 0.1 0.1 0.1 0.1 0.2 0.2 0.2 0.2 0.2 0.2 0.3 0.4 0.5 0.4 0.6 0.5 0.5 0.5 0.6 0.6 0.7 0.5 0.5 0.4 0.4 0.5 0.3 0.5 0.5 0.7
0.5 0.6 0.9 1.1 0.3 0.5 0.4 0.1 0.1 0.1 0.1 0.1 0.1 0.1 0.1 0.1 0.1 0.1 0.1 0.2 0.1 0.2 0.1 0.2 0.3 0.3 0.4 0.5 0.5 0.6 0.3 0.3 0.7 0.7 0.5 0.5 0.5 0.4 0.5 0.5 0.7 0.2 0.4 0.4